SAS454 EKRK-EKBI

Flight info

Callsign SAS454
Flight time N/A
Altitude 16000
Route DOBEL DCT ODDON DCT LOKSA
Aircraft A20N/M-SDE2E3FGHIRWXY/LB1

Departure

Time 2026-04-24 20:06
Airport Copenhagen Roskilde Airport (EKRK)

Arrival

Time N/A
Airport Billund Airport (EKBI)
Time Latitude Longitude Altitude Speed Heading
2026-04-24 19:44 55.59027 12.12787 140 ft 0 kts 115°
2026-04-24 20:00 55.59025 12.12791 140 ft 0 kts 122°
2026-04-24 20:00 55.59017 12.12798 140 ft 2 kts 178°
2026-04-24 20:00 55.59007 12.12753 139 ft 6 kts 271°
2026-04-24 20:01 55.59023 12.12661 137 ft 8 kts 287°
2026-04-24 20:01 55.58999 12.12576 137 ft 9 kts 212°
2026-04-24 20:01 55.58932 12.12514 136 ft 12 kts 207°
2026-04-24 20:01 55.58847 12.12436 134 ft 15 kts 207°
2026-04-24 20:02 55.58751 12.12448 132 ft 16 kts 122°
2026-04-24 20:02 55.58698 12.12635 131 ft 17 kts 117°
2026-04-24 20:02 55.58641 12.12836 130 ft 18 kts 116°
2026-04-24 20:02 55.58588 12.13028 132 ft 15 kts 116°
2026-04-24 20:03 55.58596 12.13180 133 ft 13 kts 37°
2026-04-24 20:03 55.58672 12.13267 136 ft 12 kts 32°
2026-04-24 20:03 55.58741 12.13340 139 ft 10 kts 30°
2026-04-24 20:03 55.58806 12.13409 140 ft 11 kts 30°
2026-04-24 20:04 55.58881 12.13487 141 ft 14 kts 30°
2026-04-24 20:04 55.58955 12.13586 143 ft 11 kts 40°
2026-04-24 20:04 55.58978 12.13554 143 ft 8 kts 204°
2026-04-24 20:04 55.58939 12.13539 143 ft 0 kts 207°
2026-04-24 20:05 55.58937 12.13538 142 ft 1 kts 207°
2026-04-24 20:05 55.58734 12.13327 138 ft 74 kts 213°
2026-04-24 20:06 55.58083 12.12603 123 ft 142 kts 216°
2026-04-24 20:06 55.57194 12.11524 548 ft 161 kts 215°
2026-04-24 20:06 55.56270 12.10568 1355 ft 154 kts 213°
2026-04-24 20:06 55.55382 12.09597 1993 ft 153 kts 229°
2026-04-24 20:07 55.55027 12.08517 2286 ft 156 kts 265°
2026-04-24 20:07 55.55618 12.06232 2783 ft 173 kts 319°
2026-04-24 20:07 55.56592 12.04816 3248 ft 192 kts 309°
2026-04-24 20:07 55.57117 12.02533 3672 ft 217 kts 276°
2026-04-24 20:08 55.57141 11.99747 4277 ft 235 kts 272°
2026-04-24 20:08 55.57157 11.96756 4924 ft 251 kts 274°
2026-04-24 20:08 55.57285 11.93708 5813 ft 255 kts 280°
2026-04-24 20:08 55.57540 11.90648 6811 ft 257 kts 282°
2026-04-24 20:09 55.57820 11.87552 7789 ft 259 kts 283°
2026-04-24 20:09 55.58099 11.84430 8741 ft 262 kts 282°
2026-04-24 20:09 55.58376 11.81236 9670 ft 265 kts 282°
2026-04-24 20:09 55.58652 11.77997 10540 ft 270 kts 282°
2026-04-24 20:10 55.58936 11.74637 11086 ft 287 kts 282°
2026-04-24 20:10 55.59235 11.71068 11591 ft 303 kts 282°
2026-04-24 20:10 55.59540 11.67357 12358 ft 310 kts 282°
2026-04-24 20:10 55.59845 11.63579 13249 ft 311 kts 282°
2026-04-24 20:11 55.60149 11.59796 14090 ft 314 kts 282°
2026-04-24 20:11 55.60457 11.55973 14905 ft 317 kts 282°
2026-04-24 20:11 55.60767 11.52128 15529 ft 320 kts 282°
2026-04-24 20:11 55.61081 11.48192 15878 ft 321 kts 282°
2026-04-24 20:12 55.61388 11.44313 15945 ft 321 kts 282°
2026-04-24 20:12 55.61694 11.40433 15948 ft 321 kts 282°